Regional Weather Roundup
Issued by NWS Wilmington, NC

Home | Current Version | Previous Version | Text Only | Print | Product List | Glossary On
Versions: 1 2 3 4 5 6 7 8 9 10 11 12 13 14 15 16 17 18 19 20 21 22 23 24 25 26 27
000
ASUS42 KILM 300313
RWRILM
RWRILM
REGIONAL HOURLY WEATHER ROUNDUP
NATIONAL WEATHER SERVICE WILMINGTON NC
1100 PM EDT SUN MAY 29 2016

NOTE: "FAIR" INDICATES FEW OR NO CLOUDS BELOW 12,000 FEET WITH NO
SIGNIFICANT WEATHER AND/OR OBSTRUCTIONS TO VISIBILITY.

...............WFO WILMINGTON COUNTY WARNING AREA...............

......COASTAL NC AND SC COUNTIES......

CITY           SKY/WX    TMP DP  RH WIND       PRES   REMARKS
WILMINGTON     CLOUDY    74  72  93 E3        30.00S
N MYRTLE BEACH CLOUDY    75  68  78 SE8       29.98R
MYRTLE BEACH   CLOUDY    73  64  73 SE15      29.99S

......INLAND NC AND SC COUNTIES.......

CITY           SKY/WX    TMP DP  RH WIND       PRES   REMARKS
LUMBERTON      CLOUDY    75  71  87 NE6       29.99R
ELIZABETHTOWN  PTCLDY    72  71  98 CALM      30.00S
WHITEVILLE     MOCLDY    73  70  91 CALM      29.98S
FLORENCE       LGT RAIN  74  69  85 NE7       29.98R
DARLINGTON     CLOUDY    71  69  93 N12       29.99S
KINGSTREE      CLOUDY    70  68  94 NE3       29.96R
HARTSVILLE     CLOUDY    68  66  94 N8G16     29.99S
BENNETTSVILLE  CLOUDY    73  72  94 N7        30.00R
CONWAY         CLOUDY    70  70 100 E3        29.97S
GEORGETOWN     CLOUDY    70  68  94 SE5       29.96R
MARION         CLOUDY    72  68  88 NE6       29.98S

....................REST OF NORTH CAROLINA......................

.........EASTERN NC.........

CITY           SKY/WX    TMP DP  RH WIND       PRES   REMARKS
CAPE HATTERAS  LGT RAIN  74  73  97 S3        30.06S
JACKSONVILLE   CLOUDY    73  73 100 E3        30.02S
MOREHEAD CITY  MOCLDY    76  73  91 S7        30.03S
KENANSVILLE    CLOUDY    73  72  98 CALM      30.03S
NEW BERN       CLOUDY    75  71  87 SE6       30.04S
ELIZABETH CITY CLOUDY    75  72  90 SE6       30.05F

.........CENTRAL NC.........

CITY           SKY/WX    TMP DP  RH WIND       PRES   REMARKS
RALEIGH DURHAM CLOUDY    67  64  90 NE6       30.05S
ROCKY MOUNT    MOCLDY    75  71  87 SE3       30.03S
ROANOKE RAPIDS NOT AVBL
FAYETTEVILLE   MOCLDY    73  71  93 N6        30.00S
HOFFMAN        NOT AVBL

.........WESTERN NC.........

CITY           SKY/WX    TMP DP  RH WIND       PRES   REMARKS
CHARLOTTE      PTCLDY    69  60  73 N7        30.05R
GREENSBORO     CLOUDY    66  58  75 NE9       30.07S
HICKORY        NOT AVBL
BOONE          NOT AVBL
ASHEVILLE      NOT AVBL

.....................REST OF SOUTH CAROLINA.....................

.........EASTERN SC.........

CITY           SKY/WX    TMP DP  RH WIND       PRES   REMARKS
CHARLESTON     CLOUDY    72  67  84 NE6       29.93R
BEAUFORT MCAS  CLOUDY    70  68  93 W10       29.95R
HILTON HEAD    CLOUDY    68  68 100 W7        29.97R

.........CENTRAL SC.........

CITY           SKY/WX    TMP DP  RH WIND       PRES   REMARKS
COLUMBIA       CLOUDY    73  65  75 N6        29.97S
ORANGEBURG     CLOUDY    72  68  87 NE13G18   29.96S
SUMTER SHAW    NOT AVBL

.........WESTERN SC.........

CITY           SKY/WX    TMP DP  RH WIND       PRES   REMARKS
GREENVILLE     NOT AVBL
ROCK HILL      CLOUDY    69  61  75 NE6       30.04R
ANDERSON       CLEAR     68  62  81 NW6       30.05S
CLEMSON        NOT AVBL
GREENWOOD      MOCLDY    67  58  72 NW5       30.06R


...................COASTAL AND OFFSHORE REPORTS..................

................LOCAL PIERS AND NC RESERVE................


STATION/POSITION TIME  SKY/WX   TEMP    WIND        PRES    VSBY
                                AIR SEA DIR/SP/G
                 (UTC)          (F)     (DEG/KT/KT) (MB)    (MI)
JOHNY MRCER PIER 0200            76 78                N/A
NC RESRV MASNBRO NOT AVBL
OCEAN CREST PIER NOT AVBL
SPRINGMAID  PIER 0200            74 77                N/A


................COASTAL AND OFFSHORE BUOYS................


STATION/POSITION TIME  SKY/WX   TEMP    WIND        PRES    VSBY
                                AIR SEA DIR/SP/G
                 (UTC)          (F)     (DEG/KT/KT) (MB)    (MI)
DIMNDSHOAL 41025 0250            79 82  160/ 19/ 23 1017.4F
WVE H/P(F/S)=  6/ 8 SWL H/P/D(F/S/D)=  2/120/21

CAPE LOOKOUT     0200            76     160/  9/  9 1016.8R
ONSLOW BAY 41036 NOT AVBL
ONSLOW BAY 41064 0208            77 75  150/  8/ 12 1016.6R
ONSLOW BAY 41159 0225               75                N/A
WVE H/P(F/S)=  6/ 7

5SE WRITBC 41038 0208            76 76  140/  6/ 10 1016.4R
MASNBO INL 41110 0206               76                N/A
WVE H/P(F/S)=  5/ 7

WILM HARBR 41108 0226               75                N/A
WVE H/P(F/S)=  5/ 6

27SE WRITB 41037 0208            78 76  150/ 14/ 17 1015.8R
FRYING PAN 41013 0200            78 78  170/ 16/ 19 1015.1R
SUNST NRSH 41024 0208            75 77  180/ 10/ 14 1015.0R
CAPRS NRSH 41029 0208            72 76  110/ 10/ 14 1012.7R
EDISTO     41004 0250            73 78  170/ 16/ 19 1013.2R
WVE H/P(F/S)=  6/ 6 SWL H/P/D(F/S/D)=  2/14



..........OFFSHORE BUOYS BEYOND 100 NM OFFSHORE...........
.....IN A TRIANGLE---HAT TO BERMUDA TO BAHAMAS TO HAT.....


STATION/POSITION TIME  SKY/WX   TEMP    WIND        PRES    VSBY
                                AIR SEA DIR/SP/G
                 (UTC)          (F)     (DEG/KT/KT) (MB)    (MI)
150E HAT   41001 NOT AVBL
W BERMUDA  41048 0250            76 76  130/ 14/ 16 1022.2R
WVE H/P(F/S)=  4/ 6 SWL H/P/D(F/S/D)=  2/150/ 7

ATLANTIC S 41049 0250            77 78  100/ 12/ 14 1022.1F
WVE H/P(F/S)=  4/ 6 SWL H/P/D(F/S/D)=  3/120/ 6

E BAHAMAS  41046 0200            80 81   90/ 14/ 17 1018.0R
NE BAHAMAS 41047 0200            77 80  120/ 17/ 21 1018.5R
120E CANVRL41010 0220            78 79  130/  4/  6 1017.9R

END




USA.gov is the U.S. government's official web portal to all federal, state and local government web resources and services.